SWA1715 KMCO-KALB

Flight info

Callsign SWA1715
Flight time N/A
Altitude 37000
Route FATHE4 VIYAP Q87 GEARS BBOBO Q22 LLUND TRUDE/N0377F160 V487 BOWAN/N0382F170 V487 CANAN
Aircraft B737/M-SDE2E3FGHIRWXY/LB1

Departure

Time 2026-05-04 18:03
Airport Orlando International Airport (KMCO)

Arrival

Time N/A
Airport Albany International Airport (KALB)
Time Latitude Longitude Altitude Speed Heading
2026-05-04 18:00 28.41158 -81.29700 105 ft 29 kts 180°
2026-05-04 18:01 28.40986 -81.29701 105 ft 21 kts 181°
2026-05-04 18:01 28.40888 -81.29702 105 ft 9 kts 179°
2026-05-04 18:01 28.40848 -81.29698 105 ft 2 kts 144°
2026-05-04 18:02 28.40828 -81.29669 105 ft 1 kts 123°
2026-05-04 18:02 28.40825 -81.29610 105 ft 17 kts 85°
2026-05-04 18:02 28.40957 -81.29561 105 ft 55 kts 359°
2026-05-04 18:03 28.41701 -81.29571 105 ft 155 kts 359°
2026-05-04 18:03 28.42992 -81.29581 503 ft 209 kts
2026-05-04 18:03 28.44457 -81.29346 1512 ft 216 kts 16°
2026-05-04 18:03 28.45932 -81.28795 2783 ft 232 kts 24°
2026-05-04 18:04 28.47430 -81.28013 4052 ft 240 kts 28°
2026-05-04 18:04 28.48907 -81.27097 5303 ft 247 kts 31°
2026-05-04 18:04 28.52140 -81.25449 7827 ft 262 kts 18°
2026-05-04 18:05 28.53965 -81.25051 9090 ft 271 kts
2026-05-04 18:05 28.55868 -81.24947 10339 ft 280 kts
2026-05-04 18:05 28.57898 -81.25057 11406 ft 303 kts 356°
2026-05-04 18:05 28.60010 -81.25305 12284 ft 310 kts 353°
2026-05-04 18:06 28.64376 -81.25963 14048 ft 322 kts 350°
2026-05-04 18:06 28.66619 -81.26316 14934 ft 326 kts 349°
2026-05-04 18:06 28.68851 -81.26663 15805 ft 329 kts 348°
2026-05-04 18:07 28.71143 -81.27010 16691 ft 331 kts 348°
2026-05-04 18:07 28.73431 -81.27349 17572 ft 332 kts 348°
2026-05-04 18:07 28.75710 -81.27678 18443 ft 333 kts 348°
2026-05-04 18:07 28.78019 -81.28004 19320 ft 335 kts 348°
2026-05-04 18:08 28.80351 -81.28327 20063 ft 343 kts 348°
2026-05-04 18:08 28.82750 -81.28627 20565 ft 346 kts 348°
2026-05-04 18:08 28.85158 -81.28892 21066 ft 347 kts 349°
2026-05-04 18:08 28.87557 -81.29131 21564 ft 350 kts 349°
2026-05-04 18:09 28.92449 -81.29570 22569 ft 354 kts 349°
2026-05-04 18:09 28.97368 -81.29997 23567 ft 358 kts 349°
2026-05-04 18:10 28.99870 -81.30237 24071 ft 360 kts 348°
2026-05-04 18:10 29.02380 -81.30493 24573 ft 363 kts 348°
2026-05-04 18:10 29.04872 -81.30757 25069 ft 365 kts 348°
2026-05-04 18:10 29.07426 -81.31027 25574 ft 368 kts 348°
2026-05-04 18:11 29.09989 -81.31258 26077 ft 370 kts 348°
2026-05-04 18:11 29.12545 -81.31460 26574 ft 373 kts 348°
2026-05-04 18:11 29.15157 -81.31647 27078 ft 376 kts 349°
2026-05-04 18:11 29.17784 -81.31823 27582 ft 378 kts 349°
2026-05-04 18:12 29.20402 -81.31990 28080 ft 380 kts 348°
2026-05-04 18:12 29.23055 -81.32156 28582 ft 382 kts 348°
2026-05-04 18:12 29.25709 -81.32318 29082 ft 385 kts 348°
2026-05-04 18:12 29.28403 -81.32481 29586 ft 387 kts 348°
2026-05-04 18:13 29.31080 -81.32643 30084 ft 389 kts 348°
2026-05-04 18:13 29.33823 -81.32808 30591 ft 391 kts 348°
2026-05-04 18:13 29.39303 -81.33139 31595 ft 396 kts 348°
2026-05-04 18:14 29.42039 -81.33305 32091 ft 399 kts 348°
2026-05-04 18:14 29.44827 -81.33474 32594 ft 402 kts 348°
2026-05-04 18:14 29.47608 -81.33643 33091 ft 404 kts 348°
2026-05-04 18:15 29.53297 -81.33990 33928 ft 415 kts 348°
2026-05-04 18:15 29.59160 -81.34350 34453 ft 426 kts 348°
2026-05-04 18:15 29.62144 -81.34527 34706 ft 429 kts 349°
2026-05-04 18:16 29.65097 -81.34700 34954 ft 430 kts 349°
2026-05-04 18:16 29.68092 -81.34873 35205 ft 431 kts 349°
2026-05-04 18:16 29.71096 -81.35043 35455 ft 431 kts 349°
2026-05-04 18:17 29.77048 -81.35376 35952 ft 427 kts 349°
2026-05-04 18:17 29.80017 -81.35540 36203 ft 426 kts 348°
2026-05-04 18:17 29.85928 -81.35873 36711 ft 422 kts 348°
2026-05-04 18:18 29.88336 -81.36006 36904 ft 422 kts 348°
2026-05-04 18:18 29.90711 -81.36141 37036 ft 424 kts 348°
2026-05-04 18:18 29.93682 -81.36314 37121 ft 428 kts 348°
2026-05-04 18:19 30.02702 -81.36853 37142 ft 440 kts 348°
2026-05-04 18:19 30.08847 -81.37218 37142 ft 447 kts 348°
2026-05-04 18:20 30.15112 -81.37583 37141 ft 451 kts 348°
2026-05-04 18:20 30.21386 -81.37941 37141 ft 454 kts 348°
2026-05-04 18:21 30.27710 -81.38299 37141 ft 455 kts 348°
2026-05-04 18:21 30.34060 -81.38656 37141 ft 455 kts 348°
2026-05-04 18:22 30.40347 -81.39014 37141 ft 455 kts 348°
2026-05-04 18:22 30.44552 -81.39253 37141 ft 454 kts 348°